Location: Ammerl�gen
(47.2167°N, 9.6000°E)
Time: 02:48:30
(UTC+00:00)

Meteor 1-4 Rocket - Pass Details

Date: 21 April 2021
Orbit: 448 x 498 km, 81.2° (Epoch: 16 May)

Event Time Altitude Azimuth Distance (km) Brightness Sun altitude
Exits shadow 19:44:57 14° 77° (ENE) 1,361 4.4 -13.7°
Drops below altitude 10° 19:46:25 10° 53° (NE) 1,614 5.0 -13.9°
Sets 19:49:12 0° 29° (NNE) 2,507 6.3 -14.3°
